Tracking 29790 objects as of 12-Oct-2024
HD Live streaming from Space Station
objects crossing your sky now

BREEZE-M DEB

Track BREEZE-M DEB now!
10-day predictions


NORAD ID: 38568
Int'l Code: 2008-011P
Perigee: 446.5 km
Apogee: 22,727.4 km
Inclination: 50.0 °
Period: 399.2 minutes
Semi major axis: 17957 km
RCS: 0.1545 m2 (medium)
Launch date: March 14, 2008
Source: Commonwealth of Independent States (former USSR) (CIS)
Launch site: TYURATAM MISSILE AND SPACE COMPLEX (TTMTR)

Note: This is SATELLITE DEBRIS
Your satellite tracking list
Your tracking list is empty




NASA's NSSDC Master Catalog

Two Line Element Set (TLE):
1 38568U 08011P   24284.91734462  .00163835  00000-0  29238+0 0  9995
2 38568  50.0000  64.4340 6203648 138.9656 289.9781  3.60760406158500
Source of the keplerian elements: AFSPC